Time,TemperatureF,DewpointF,PressureIn,WindDirection,WindDirectionDegrees,WindSpeedMPH,WindSpeedGustMPH,Humidity,HourlyPrecipIn,Conditions,Clouds,dailyrainin,SoftwareType,DateUTC
2013-10-14 00:06:00,58.1,54.0,30.30,WNW,288,0.0,2.0,87,0.00,,,0.02,weatherlink.com 1.10,2013-10-14 04:06:00,
2013-10-14 00:21:00,58.1,54.0,30.30,WNW,288,1.0,2.0,87,0.00,,,0.00,weatherlink.com 1.10,2013-10-14 04:21:00,
2013-10-14 00:36:00,58.0,54.0,30.30,WNW,288,0.0,1.0,87,0.00,,,0.00,weatherlink.com 1.10,2013-10-14 04:36:00,
2013-10-14 00:51:00,57.9,54.0,30.30,WNW,296,0.0,2.0,87,0.00,,,0.00,weatherlink.com 1.10,2013-10-14 04:51:00,
2013-10-14 01:06:00,57.8,54.0,30.30,WNW,296,0.0,2.0,88,0.00,,,0.00,weatherlink.com 1.10,2013-10-14 05:06:00,
2013-10-14 01:21:00,57.8,54.0,30.30,WNW,296,0.0,2.0,88,0.00,,,0.00,weatherlink.com 1.10,2013-10-14 05:21:00,
2013-10-14 01:36:00,57.8,54.0,30.30,WNW,296,0.0,2.0,88,0.00,,,0.00,weatherlink.com 1.10,2013-10-14 05:36:00,
2013-10-14 01:51:00,57.8,54.0,30.30,WNW,296,0.0,1.0,88,0.00,,,0.00,weatherlink.com 1.10,2013-10-14 05:51:00,
2013-10-14 02:06:00,57.8,55.0,30.30,WNW,294,0.0,2.0,89,0.00,,,0.00,weatherlink.com 1.10,2013-10-14 06:06:00,
2013-10-14 02:21:00,57.7,54.0,30.30,WNW,294,1.0,1.0,88,0.00,,,0.00,weatherlink.com 1.10,2013-10-14 06:21:00,
2013-10-14 02:36:00,57.6,54.0,30.30,WNW,294,0.0,1.0,88,0.00,,,0.00,weatherlink.com 1.10,2013-10-14 06:36:00,
2013-10-14 02:51:00,57.5,54.0,30.29,WNW,292,1.0,3.0,88,0.00,,,0.00,weatherlink.com 1.10,2013-10-14 06:51:00,
2013-10-14 03:06:00,57.4,54.0,30.29,WNW,292,0.0,2.0,88,0.00,,,0.00,weatherlink.com 1.10,2013-10-14 07:06:00,
2013-10-14 03:21:00,57.3,54.0,30.29,WNW,292,0.0,3.0,88,0.00,,,0.00,weatherlink.com 1.10,2013-10-14 07:21:00,
2013-10-14 03:36:00,57.2,54.0,30.29,WNW,286,0.0,1.0,88,0.00,,,0.00,weatherlink.com 1.10,2013-10-14 07:36:00,
2013-10-14 03:51:00,57.0,54.0,30.28,WNW,297,0.0,6.0,88,0.00,,,0.00,weatherlink.com 1.10,2013-10-14 07:51:00,
2013-10-14 04:06:00,56.8,54.0,30.28,WNW,297,0.0,1.0,89,0.00,,,0.00,weatherlink.com 1.10,2013-10-14 08:06:00,
2013-10-14 04:21:00,56.7,54.0,30.29,NNE,32,0.0,2.0,89,0.00,,,0.00,weatherlink.com 1.10,2013-10-14 08:21:00,
2013-10-14 04:36:00,56.6,54.0,30.30,SE,139,0.0,2.0,89,0.00,,,0.00,weatherlink.com 1.10,2013-10-14 08:36:00,
2013-10-14 04:51:00,56.4,53.0,30.30,NNE,14,0.0,1.0,89,0.00,,,0.00,weatherlink.com 1.10,2013-10-14 08:51:00,
2013-10-14 05:06:00,56.3,53.0,30.30,NNE,13,0.0,2.0,89,0.00,,,0.00,weatherlink.com 1.10,2013-10-14 09:06:00,
2013-10-14 05:21:00,56.3,54.0,30.30,NNE,13,0.0,1.0,90,0.00,,,0.00,weatherlink.com 1.10,2013-10-14 09:21:00,
2013-10-14 05:36:00,56.4,53.0,30.30,North,355,0.0,2.0,89,0.00,,,0.00,weatherlink.com 1.10,2013-10-14 09:36:00,
2013-10-14 05:51:00,56.2,53.0,30.31,North,355,0.0,2.0,89,0.00,,,0.00,weatherlink.com 1.10,2013-10-14 09:51:00,
2013-10-14 06:06:00,55.9,53.0,30.31,NNW,333,0.0,1.0,89,0.00,,,0.00,weatherlink.com 1.10,2013-10-14 10:06:00,
2013-10-14 06:21:00,55.6,53.0,30.31,SW,228,0.0,2.0,90,0.00,,,0.00,weatherlink.com 1.10,2013-10-14 10:21:00,
2013-10-14 06:36:00,55.5,53.0,30.31,SSW,207,0.0,2.0,90,0.00,,,0.00,weatherlink.com 1.10,2013-10-14 10:36:00,
2013-10-14 06:51:00,55.1,52.0,30.31,SSW,207,0.0,1.0,89,0.00,,,0.00,weatherlink.com 1.10,2013-10-14 10:51:00,
2013-10-14 07:06:00,54.7,52.0,30.31,SSW,207,0.0,0.0,90,0.00,,,0.00,weatherlink.com 1.10,2013-10-14 11:06:00,
2013-10-14 07:21:00,54.4,52.0,30.31,SSW,207,0.0,0.0,91,0.00,,,0.00,weatherlink.com 1.10,2013-10-14 11:21:00,
2013-10-14 07:36:00,54.2,52.0,30.30,SSW,207,0.0,1.0,91,0.00,,,0.00,weatherlink.com 1.10,2013-10-14 11:36:00,
2013-10-14 07:51:00,54.2,52.0,30.31,SSW,207,0.0,1.0,92,0.00,,,0.00,weatherlink.com 1.10,2013-10-14 11:51:00,
2013-10-14 08:06:00,54.2,52.0,30.31,SSW,207,0.0,1.0,92,0.00,,,0.00,weatherlink.com 1.10,2013-10-14 12:06:00,
2013-10-14 08:21:00,54.3,52.0,30.32,SSW,207,0.0,0.0,92,0.00,,,0.00,weatherlink.com 1.10,2013-10-14 12:21:00,
2013-10-14 08:36:00,54.7,53.0,30.32,WSW,248,0.0,4.0,93,0.00,,,0.00,weatherlink.com 1.10,2013-10-14 12:36:00,
2013-10-14 08:51:00,55.3,53.0,30.32,WSW,248,0.0,1.0,92,0.00,,,0.00,weatherlink.com 1.10,2013-10-14 12:51:00,
2013-10-14 09:06:00,56.1,54.0,30.32,WSW,248,0.0,1.0,92,0.00,,,0.00,weatherlink.com 1.10,2013-10-14 13:06:00,
2013-10-14 09:21:00,56.8,54.0,30.32,WSW,248,0.0,2.0,91,0.00,,,0.00,weatherlink.com 1.10,2013-10-14 13:21:00,
2013-10-14 09:36:00,57.5,54.0,30.32,WSW,252,0.0,2.0,89,0.00,,,0.00,weatherlink.com 1.10,2013-10-14 13:36:00,
2013-10-14 09:53:00,58.6,55.0,30.32,WNW,301,0.0,2.0,88,0.00,,,0.00,weatherlink.com 1.10,2013-10-14 13:53:00,
2013-10-14 10:07:00,59.6,56.0,30.31,WNW,301,1.0,2.0,86,0.00,,,0.00,weatherlink.com 1.10,2013-10-14 14:07:00,
2013-10-14 10:22:00,59.3,55.0,30.31,WNW,300,0.0,1.0,86,0.00,,,0.00,weatherlink.com 1.10,2013-10-14 14:22:00,
2013-10-14 10:37:00,60.8,56.0,30.31,North,360,0.0,2.0,84,0.00,,,0.00,weatherlink.com 1.10,2013-10-14 14:37:00,
2013-10-14 10:52:00,61.9,56.0,30.31,West,277,0.0,3.0,82,0.00,,,0.00,weatherlink.com 1.10,2013-10-14 14:52:00,
2013-10-14 11:07:00,62.0,56.0,30.31,WNW,284,0.0,2.0,82,0.00,,,0.00,weatherlink.com 1.10,2013-10-14 15:07:00,
2013-10-14 11:22:00,61.3,57.0,30.30,WSW,246,1.0,2.0,84,0.00,,,0.00,weatherlink.com 1.10,2013-10-14 15:22:00,
2013-10-14 11:37:00,62.4,57.0,30.29,West,279,0.0,2.0,83,0.00,,,0.00,weatherlink.com 1.10,2013-10-14 15:37:00,
2013-10-14 11:52:00,64.1,58.0,30.30,WSW,257,0.0,2.0,81,0.00,,,0.00,weatherlink.com 1.10,2013-10-14 15:52:00,
2013-10-14 12:07:00,64.9,58.0,30.29,NW,304,1.0,4.0,78,0.00,,,0.00,weatherlink.com 1.10,2013-10-14 16:07:00,
2013-10-14 12:22:00,63.6,57.0,30.29,NW,304,0.0,3.0,79,0.00,,,0.00,weatherlink.com 1.10,2013-10-14 16:22:00,
2013-10-14 12:37:00,64.1,57.0,30.29,WNW,303,3.0,4.0,79,0.00,,,0.00,weatherlink.com 1.10,2013-10-14 16:37:00,
2013-10-14 12:52:00,63.7,57.0,30.28,WNW,303,0.0,3.0,79,0.00,,,0.00,weatherlink.com 1.10,2013-10-14 16:52:00,
2013-10-14 13:07:00,63.7,57.0,30.27,WNW,303,0.0,3.0,80,0.00,,,0.00,weatherlink.com 1.10,2013-10-14 17:07:00,
2013-10-14 13:22:00,64.4,58.0,30.27,WNW,300,0.0,3.0,79,0.00,,,0.00,weatherlink.com 1.10,2013-10-14 17:22:00,
2013-10-14 13:37:00,64.9,57.0,30.26,NW,309,0.0,3.0,76,0.00,,,0.00,weatherlink.com 1.10,2013-10-14 17:37:00,
2013-10-14 13:52:00,64.4,57.0,30.26,NW,322,1.0,3.0,77,0.00,,,0.00,weatherlink.com 1.10,2013-10-14 17:52:00,
2013-10-14 14:22:00,64.8,58.0,30.25,WNW,297,0.0,3.0,78,0.00,,,0.00,weatherlink.com 1.10,2013-10-14 18:22:00,
2013-10-14 14:37:00,64.5,58.0,30.25,NW,316,0.0,2.0,78,0.00,,,0.00,weatherlink.com 1.10,2013-10-14 18:37:00,
2013-10-14 14:52:00,65.4,57.0,30.24,NW,311,0.0,4.0,74,0.00,,,0.00,weatherlink.com 1.10,2013-10-14 18:52:00,
2013-10-14 15:07:00,65.4,58.0,30.24,NW,306,0.0,4.0,76,0.00,,,0.00,weatherlink.com 1.10,2013-10-14 19:07:00,
2013-10-14 15:22:00,66.0,58.0,30.23,NW,306,1.0,3.0,74,0.00,,,0.00,weatherlink.com 1.10,2013-10-14 19:22:00,
2013-10-14 15:37:00,65.8,57.0,30.23,WNW,300,0.0,4.0,72,0.00,,,0.00,weatherlink.com 1.10,2013-10-14 19:37:00,
2013-10-14 15:52:00,66.3,57.0,30.23,WNW,301,1.0,2.0,73,0.00,,,0.00,weatherlink.com 1.10,2013-10-14 19:52:00,
2013-10-14 16:07:00,66.1,56.0,30.23,WNW,301,1.0,3.0,70,0.00,,,0.00,weatherlink.com 1.10,2013-10-14 20:07:00,
2013-10-14 16:22:00,65.3,56.0,30.23,WNW,301,0.0,2.0,72,0.00,,,0.00,weatherlink.com 1.10,2013-10-14 20:22:00,
2013-10-14 16:37:00,65.0,56.0,30.23,WNW,301,0.0,2.0,73,0.00,,,0.00,weatherlink.com 1.10,2013-10-14 20:37:00,
2013-10-14 16:52:00,64.6,56.0,30.23,WNW,301,0.0,2.0,74,0.00,,,0.00,weatherlink.com 1.10,2013-10-14 20:52:00,
2013-10-14 17:07:00,64.4,56.0,30.23,WNW,301,0.0,1.0,75,0.00,,,0.00,weatherlink.com 1.10,2013-10-14 21:07:00,
2013-10-14 17:22:00,64.1,57.0,30.23,WNW,301,0.0,0.0,77,0.00,,,0.00,weatherlink.com 1.10,2013-10-14 21:22:00,
2013-10-14 17:37:00,63.6,57.0,30.23,WNW,301,1.0,1.0,78,0.00,,,0.00,weatherlink.com 1.10,2013-10-14 21:37:00,
2013-10-14 17:52:00,63.3,57.0,30.23,WNW,301,0.0,0.0,80,0.00,,,0.00,weatherlink.com 1.10,2013-10-14 21:52:00,
2013-10-14 18:22:00,62.0,56.0,30.24,WNW,301,0.0,0.0,80,0.00,,,0.00,weatherlink.com 1.10,2013-10-14 22:22:00,
2013-10-14 18:37:00,61.4,56.0,30.24,WNW,301,0.0,0.0,83,0.00,,,0.00,weatherlink.com 1.10,2013-10-14 22:37:00,
2013-10-14 18:52:00,60.5,56.0,30.25,WNW,301,0.0,0.0,84,0.00,,,0.00,weatherlink.com 1.10,2013-10-14 22:52:00,
2013-10-14 19:07:00,59.6,56.0,30.24,WNW,301,0.0,0.0,86,0.00,,,0.00,weatherlink.com 1.10,2013-10-14 23:07:00,
2013-10-14 19:22:00,59.0,55.0,30.25,WNW,301,0.0,0.0,86,0.00,,,0.00,weatherlink.com 1.10,2013-10-14 23:22:00,
2013-10-14 19:37:00,58.5,55.0,30.25,WNW,301,0.0,0.0,88,0.00,,,0.00,weatherlink.com 1.10,2013-10-14 23:37:00,
2013-10-14 19:52:00,57.9,55.0,30.25,WNW,301,0.0,0.0,89,0.00,,,0.00,weatherlink.com 1.10,2013-10-14 23:52:00,
2013-10-14 20:07:00,57.5,55.0,30.24,WNW,301,0.0,0.0,90,0.00,,,0.00,weatherlink.com 1.10,2013-10-15 00:07:00,
2013-10-14 20:23:00,57.0,54.0,30.24,WNW,301,0.0,1.0,90,0.00,,,0.00,weatherlink.com 1.10,2013-10-15 00:23:00,
2013-10-14 20:38:00,56.7,55.0,30.24,WNW,301,0.0,0.0,92,0.00,,,0.00,weatherlink.com 1.10,2013-10-15 00:38:00,
2013-10-14 20:54:00,56.7,55.0,30.24,WNW,301,0.0,0.0,92,0.00,,,0.00,weatherlink.com 1.10,2013-10-15 00:54:00,
2013-10-14 21:08:00,56.5,55.0,30.24,WNW,301,0.0,0.0,93,0.00,,,0.00,weatherlink.com 1.10,2013-10-15 01:08:00,
2013-10-14 21:23:00,56.2,54.0,30.25,WNW,301,0.0,0.0,92,0.00,,,0.00,weatherlink.com 1.10,2013-10-15 01:23:00,
2013-10-14 21:38:00,55.4,54.0,30.25,WNW,301,0.0,0.0,93,0.00,,,0.00,weatherlink.com 1.10,2013-10-15 01:38:00,
2013-10-14 21:53:00,55.2,53.0,30.24,WNW,301,0.0,0.0,93,0.00,,,0.00,weatherlink.com 1.10,2013-10-15 01:53:00,
2013-10-14 22:08:00,55.2,54.0,30.24,WNW,301,0.0,0.0,94,0.00,,,0.00,weatherlink.com 1.10,2013-10-15 02:08:00,
2013-10-14 22:23:00,55.0,53.0,30.24,WNW,301,0.0,0.0,94,0.00,,,0.00,weatherlink.com 1.10,2013-10-15 02:23:00,
2013-10-14 22:38:00,55.0,54.0,30.25,WNW,301,0.0,0.0,95,0.00,,,0.00,weatherlink.com 1.10,2013-10-15 02:38:00,
2013-10-14 22:53:00,54.9,54.0,30.25,WNW,301,0.0,0.0,95,0.00,,,0.00,weatherlink.com 1.10,2013-10-15 02:53:00,
2013-10-14 23:08:00,54.9,54.0,30.24,WNW,301,0.0,0.0,95,0.00,,,0.00,weatherlink.com 1.10,2013-10-15 03:08:00,
2013-10-14 23:23:00,54.5,53.0,30.24,WNW,301,0.0,0.0,94,0.00,,,0.00,weatherlink.com 1.10,2013-10-15 03:23:00,
2013-10-14 23:38:00,54.2,53.0,30.24,WNW,301,0.0,0.0,95,0.00,,,0.00,weatherlink.com 1.10,2013-10-15 03:38:00,
2013-10-14 23:53:00,54.1,53.0,30.24,WNW,301,0.0,0.0,95,0.00,,,0.00,weatherlink.com 1.10,2013-10-15 03:53:00,